Regional Weather Roundup
Issued by NWS

Home | Current Version | Previous Version | Text Only | Print | Product List | Glossary Off
Versions: 1 2 3 4 5 6 7 8 9 10 11 12 13 14 15 16 17 18 19 20 21 22 23 24 25 26 27 28 29 30 31 32 33 34 35 36 37 38 39 40 41 42 43 44 45 46 47 48 49 50

000
ASUS43 KOAX 180910
RWRNE

WEATHER ROUNDUP FOR NEBRASKA
NATIONAL WEATHER SERVICE OMAHA NE
400 AM CDT FRI APR 18 2014

NOTES: SATELLITE DATA IS BEING USED TO AUGMENT CLOUD COVER ABOVE
       12000 FEET.
       "FAIR" INDICATES FEW OR NO CLOUDS BELOW 12,000 FEET WITH NO
       SIGNIFICANT WEATHER AND/OR OBSTRUCTIONS TO VISIBILITY.

  * THESE STATIONS DO NOT REPORT WEATHER SUCH AS RAIN...SNOW OR FOG.

NEZ001>004-019>022-054>056-181000-
NEBRASKA PANHANDLE

CITY           SKY/WX    TMP DP  RH WIND       PRES   REMARKS
SCOTTSBLUFF    PTCLDY    45  34  65 E8        29.92F
ALLIANCE       CLEAR     38  34  85 S10       29.94S WCI  31
CHADRON        CLEAR     43  35  73 SW6       29.86F
KIMBALL        MOCLDY    38  33  80 S5        29.96F WCI  35
SIDNEY         CLEAR     40  34  79 S14       29.98F WCI  32
$$

NEZ057>060-069>072-079>082-181000-
SOUTHWEST NEBRASKA

CITY           SKY/WX    TMP DP  RH WIND       PRES   REMARKS
NORTH PLATTE   CLEAR     41  36  82 S12       30.09F
IMPERIAL       CLEAR     39  35  86 S9        30.06F WCI  33
LEXINGTON      CLEAR     38  33  81 SE6       30.14S WCI  34
MCCOOK         CLEAR     39  37  92 S9        30.13F WCI  33
OGALLALA       PTCLDY    39  35  86 CALM      30.04S
$$

NEZ005>010-023>029-035>040-094-181000-
NORTH CENTRAL NEBRASKA

CITY           SKY/WX    TMP DP  RH WIND       PRES   REMARKS
VALENTINE      CLEAR     42  32  67 S14G23    30.01F
AINSWORTH      CLEAR     39  30  69 S15       30.04F WCI  31
BROKEN BOW     CLEAR     36  30  79 S8        30.12F WCI  30
O`NEILL        CLEAR     37  26  63 SE7       30.13F WCI  31
ORD            CLEAR     34  28  79 E3        30.14F
THEDFORD       CLEAR     44  36  73 S14       30.05F
$$

NEZ041-046>049-061>064-073>077-083>087-181000-
SOUTH CENTRAL NEBRASKA

CITY           SKY/WX    TMP DP  RH WIND       PRES   REMARKS
GRAND ISLAND   CLEAR     39  29  67 S10       30.19F WCI  32
AURORA         CLEAR     38  29  72 S8        30.20S WCI  32
HASTINGS       CLEAR     39  28  64 S9        30.18F WCI  33
HEBRON         CLEAR     35  29  79 S5        30.24S HAZE    WCI  31
HOLDREGE       CLEAR     36  31  81 S8        30.16S WCI  30
KEARNEY *      CLEAR     36  28  75 S8        30.17S WCI  29
YORK           CLEAR     36  28  75 S7        30.22S WCI  30
$$

NEZ011>018-030>034-042>045-181000-
NORTHEAST NEBRASKA

CITY           SKY/WX    TMP DP  RH WIND       PRES   REMARKS
NORFOLK        CLEAR     38  26  62 S10       30.19F WCI  31
ALBION         PTCLDY    32  25  76 SE5       30.18F WCI  27
BLAIR          CLEAR     39  26  58 S3        30.24S
COLUMBUS *     CLEAR     36  25  64 SE7       30.21F WCI  30
FREMONT        CLEAR     37  28  69 SE3       30.24S
TEKAMAH        CLEAR     27  21  78 W3        30.26R
$$

NEZ050>053-065>068-078-088>093-181000-
SOUTHEAST NEBRASKA

CITY           SKY/WX    TMP DP  RH WIND       PRES   REMARKS
LINCOLN        CLEAR     38  27  64 S3        30.26S
OMAHA EPPLEY   PTCLDY    33  27  78 CALM      30.26S
BEATRICE       CLEAR     37  31  78 S5        30.25S HAZE    WCI  34
FALLS CITY     CLEAR     33  30  88 E3        30.26F
NEBRASKA CITY  CLEAR     35  28  76 SW6       30.26R WCI  30
PLATTSMOUTH    CLEAR     38  27  62 S7        30.25S WCI  33
$$

NEZ044-045-051>053-067-181000-
OMAHA AREA

CITY           SKY/WX    TMP DP  RH WIND       PRES   REMARKS
OMAHA EPPLEY   PTCLDY    33  27  78 CALM      30.26S
BLAIR          CLEAR     39  26  58 S3        30.24S
FREMONT        CLEAR     37  28  69 SE3       30.24S
MILLARD        CLEAR     33  29  84 CALM      30.25S
OFFUTT AFB     CLEAR     28  28  99 E2        30.25S
PLATTSMOUTH    CLEAR     38  27  62 S7        30.25S WCI  33
WAHOO          FAIR      33  24  72 SE3       30.24S
$$



USA.gov is the U.S. government's official web portal to all federal, state and local government web resources and services.